sat.trackr.live / text

‹ back to catalog

ONEWEB-0468

NORAD 51652 · 2022-012AG

PAYLOAD ACTIVE UNKNOWN

§ Identity

Operator
Country
UK
Launch date
2022-02-10
Launch site
FRGUI
Launch vehicle
Mass (kg)
RCS (m²)

Purposes: comms

External: N2YO · Heavens-Above · Gunter

§ Orbital elements

Epoch: 2026-09-20T02:29:33.935136Z

Period
109.89 min
Inclination
87.8895°
Eccentricity
0.0001860
Mean motion
13.10373430 rev/d
Perigee alt
1,220.3 km
Apogee alt
1,223.1 km
Semi-major
7,599.9 km
B*
4.8646e-4
RAAN
17.3760°
Arg perigee
92.6920°
Mean anomaly
267.4420°
Rev number
22,173

§ Raw data

ONEWEB-04681 51652U 22012AG  26263.10386499  .00000182  00000+0  48646-3 0  99962 51652  87.8895  17.3760 0001860  92.6920 267.4420 13.10373430221738

JSON: /api/v1/satellites/51652 · /tle

For live sub-satellite position, see the globe view (requires WebGL).

§ Visibility from observer

Set your observer location to see the next 7 days of passes ≥ 10°. The values pass through the URL so the page stays shareable.

No JS? Fill the form by hand. The geolocation button needs JavaScript.